Location: OLV Amersfoort
(52.1552°N, 5.3872°E)
Time: 15:40:52
(UTC+02:00)

ISS - Visible Passes

Search period start: 28 September 2016 00:00
Search period end: 08 October 2016 00:00
Orbit: 400 x 410 km, 51.6° (Epoch: 28 September)

Date Brightness Start Highest point End Pass type
(mag) Time Alt. Az. Time Alt. Az. Time Alt. Az.
29 Sep -0.9 21:16:07 10° SSW 21:16:37 13° SSW 21:16:37 13° SSW visible
30 Sep -1.4 20:24:58 10° S 20:26:49 14° SE 20:27:05 14° SE visible
30 Sep -0.4 21:59:36 10° SW 21:59:47 11° SW 21:59:47 11° SW visible
01 Oct -2.2 21:07:44 10° SW 21:10:05 31° S 21:10:05 31° S visible
02 Oct -2.0 20:16:04 10° SSW 20:18:47 25° SSE 20:20:15 18° ESE visible
02 Oct -1.0 21:51:42 10° WSW 21:52:55 21° WSW 21:52:55 21° WSW visible
03 Oct -3.2 20:59:40 10° WSW 21:02:52 54° SSE 21:02:58 54° SSE visible
04 Oct -2.7 20:07:44 10° SW 20:10:49 40° SSE 20:12:56 17° E visible
04 Oct -1.4 21:43:53 10° W 21:45:36 29° W 21:45:36 29° W visible
05 Oct -3.4 20:51:45 10° WSW 20:55:01 74° S 20:55:30 59° ESE visible
06 Oct -3.2 19:59:39 10° WSW 20:02:53 60° SSE 20:05:20 16° E visible
06 Oct -1.7 21:36:02 10° W 21:38:00 33° W 21:38:00 33° W visible
07 Oct -3.4 20:43:52 10° W 20:47:08 84° S 20:47:48 53° E visible
07 Oct 0.1 22:20:20 10° W 22:20:27 11° W 22:20:27 11° W visible
